User: anonymous   Login
Location: Halvern
(37.6252°N, 122.0525°W)
Time: 09:07:55
(UTC+00:00)
Language:

Tiangong - Orbit

View from above orbital plane
View from above orbital plane
View from above satellite
View from above satellite

Ground track
Ground track

The orbit data is extracted from the following two-line orbital elements,

1 48274U 21035A   24196.51233765  .00043584  00000-0  44710-3 0  9993
2 48274  41.4678 276.2680 0003526  40.8201 319.2903 15.64136642183376
Epoch (UTC): 14 July 2024 12:17:45
Eccentricity: 0.0003526
inclination: 41.4678°
perigee height: 373 km
apogee height: 378 km
right ascension of ascending node: 276.2680°
argument of perigee: 40.8201°
revolutions per day: 15.64136642
mean anomaly at epoch: 319.2903°
orbit number at epoch: 18337

The dashed part of the orbit path shows where the satellite is in the earth's shadow,  

DLR